Tracking 25405 objects as of 26-Jan-2022
HD Live streaming from Space Station
objects crossing your sky now

STARLINK-1299

Track STARLINK-1299 now!
10-day predictions
STARLINK-1299 is classified as:


NORAD ID: 45418
Int'l Code: 2020-019BL
Perigee: 566.4 km
Apogee: 568.3 km
Inclination: 53.0 °
Period: 95.9 minutes
Semi major axis: 6938 km
RCS: Unknown
Launch date: March 18, 2020
Source: United States (US)
Launch site: AIR FORCE EASTERN TEST RANGE (AFETR)
aabbcc
Your satellite tracking list
Your tracking list is empty




NASA's NSSDC Master Catalog

Two Line Element Set (TLE):
1 45418U 20019BL  22026.55170747  .00004806  00000-0  38135-3 0  9993
2 45418  53.0008  94.4016 0001374  97.4898 262.6245 15.02166602102597
Source of the keplerian elements: AFSPC